Flag for Germany Weather past 2 weeks in Bietigheim-Bissingen, Baden-Württemberg, Germany

Now
57 °F

Overcast.


Feels Like: 57 °F
Forecast: 56 / 74 °F
Wind: 3 mph from North

Location: Stuttgart-Echterdingen

Current Time: Sep 3, 2014 at 6:04:02 AM

Latest Report: Sep 3, 2014 at 4:00 AM


Visibility: 8 mi

Pressure: 30.14 "Hg

Humidity: 94%

Dew point: 55 °F

Location of Bietigheim-BissingenLocation

Historic Weather in Bietigheim-Bissingen — Graph

°F

Bietigheim-Bissingen temperature yesterday

Maximum temperature yesterday: 64 °F (at 1:00 PM)
Minimum temperature yesterday: 53 °F (at 4:00 AM)
Average temperature yesterday: 58 °F

Past Weeks' High & Low Weather Summary

 TemperatureHumidityPressure
High74 °F (Aug 28, 4:00 PM)100% (Aug 28, 8:00 AM)30.19 "Hg (Aug 28, 8:00 AM)
Low45 °F (Aug 25, 6:00 AM)43% (Aug 22, 1:00 PM)29.69 "Hg (Aug 26, 6:00 AM)
Average59 °F79%30.02 "Hg
* Reported Aug 19 4:00 AM — Sep 3 4:00 AM, Bietigheim-Bissingen, Weather by CustomWeather, © 2014

Note: Actual official high and low records may vary slightly from our data, if they occured in-between our weather recording intervals... More about our weather records

Advertising

Bietigheim-Bissingen weather history for previous 24 hours

 ConditionsComfort  
Time TempWeatherWind HumidityBarometerVisibility
4:00 AM
Sep 3
57 °FOvercast.3 mph94%30.14 "Hg8 mi
3:00 AM56 °FOvercast.1 mph96%30.15 "Hg7 mi
2:00 AM56 °FOvercast.1 mph96%30.16 "Hg8 mi
1:00 AM56 °FOvercast.1 mph95%30.17 "Hg9 mi
12:00 AM56 °FOvercast.No wind96%30.18 "Hg10 mi
11:00 PM
Sep 2
56 °FOvercast.No wind95%30.19 "Hg11 mi
10:00 PM56 °FOvercast.No wind92%30.18 "Hg12 mi
9:00 PM57 °FOvercast.1 mph91%30.17 "Hg14 mi
8:00 PM59 °FOvercast.1 mph90%30.16 "Hg22 mi
7:00 PM58 °FSprinkles. Overcast.2 mph90%30.15 "Hg7 mi
6:00 PM60 °FOvercast.2 mph81%30.14 "Hg12 mi
4:00 PM62 °FOvercast.3 mph72%30.14 "Hg9 mi
3:00 PM61 °FOvercast.3 mph76%30.15 "Hg14 mi
2:00 PM62 °FOvercast.2 mph72%30.14 "Hg16 mi
1:00 PM64 °FOvercast.2 mph66%30.14 "Hg16 mi
12:00 PM63 °FOvercast.2 mph70%30.14 "Hg12 mi
10:00 AM61 °FPartly sunny.1 mph75%30.15 "Hg9 mi
9:00 AM57 °FScattered clouds.1 mph90%30.15 "Hg7 mi
8:00 AM54 °FSprinkles. Overcast.1 mph96%30.16 "Hg10 mi
7:00 AM53 °FOvercast.1 mph96%30.16 "Hg9 mi
6:00 AM54 °FOvercast.1 mph95%30.15 "Hg12 mi
Weather by CustomWeather, © 2014

See weather overviewHow to use our weather pages